Simultaneous Nadir Overpasses (SNOs) Predictions

Prediction of SNOs between METOP-A and TERRA Satellite Orbit:

Table of predicted SNOs for the next 14.0 days since TLE Epoch: 4/27/2017
Index Date (METOP-A) Time (METOP-A) Lat,Lon (METOP-A) SZA (METOP-A ) Date (TERRA) Time (TERRA) Lat,Lon (TERRA) SZA (TERRA ) Distance(km) Time Diff (sec)
1 04/30/2017 03:40:58 81.33, 172.31 69.50 04/30/2017 03:41:36 81.33, 172.43 69.53 1.99 38
2 04/30/2017 04:31:37 -81.34, -19.53 110.42 04/30/2017 04:31:02 -81.34, -19.66 110.45 2.19 35
3 05/02/2017 23:15:19 81.34,-121.07 68.69 05/02/2017 23:15:51 81.34,-120.88 68.74 3.28 32
4 05/03/2017 00:05:59 -81.34, 46.71 111.27 05/03/2017 00:05:18 -81.34, 46.67 111.29 0.71 41
5 05/05/2017 18:49:40 81.34, -54.48 67.92 05/05/2017 18:50:07 81.33, -54.63 67.91 2.63 27
6 05/05/2017 19:40:20 -81.34, 113.31 112.04 05/05/2017 19:39:33 -81.35, 113.32 112.06 0.71 47
7 05/08/2017 14:24:00 81.34, 12.10 67.18 05/08/2017 14:24:21 81.34, 11.95 67.17 2.53 21
8 05/08/2017 15:14:41 -81.34, 179.50 112.83 05/08/2017 15:13:48 -81.34, 179.53 112.85 0.68 53
9 05/11/2017 09:58:21 81.34, 78.65 66.46 05/11/2017 09:58:36 81.34, 78.46 66.45 3.12 15




NCC Satellite Simultaneous Nadir Overpasses (SNOs) Prediction Service
